Regional Weather Roundup
Issued by NWS

Home | Current Version | Previous Version | Graphics & Text | Print | Product List | Glossary On
Versions: 1 2 3 4 5 6 7 8 9 10 11 12 13 14 15 16 17 18 19 20 21 22 23 24 25 26 27 28 29 30 31 32 33 34 35 36 37 38 39 40 41 42 43 44 45 46 47 48 49 50
000
ASUS43 KBIS 180820
RWRND

NORTH DAKOTA REGIONAL WEATHER ROUNDUP
NATIONAL WEATHER SERVICE BISMARCK ND
200 AM CST THU DEC 18 2014

NOTE: "FAIR" INDICATES FEW OR NO CLOUDS BELOW 12,000 FEET WITH NO
SIGNIFICANT WEATHER AND/OR OBSTRUCTIONS TO VISIBILITY.


NDZ001>003-009>011-017-180900-
NORTHWEST NORTH DAKOTA

CITY           SKY/WX    TMP DP  RH WIND       PRES   REMARKS
WILLISTON      CLOUDY    20  15  81 SE9       30.03F WCI   9
MINOT          CLOUDY    10   6  84 SE7       30.11F WCI  -1
MINOT AFB      PTCLDY     4   2  94 SE6       30.11F WCI  -7
$$

NDZ018>021-031>035-040>046-180900-
SOUTHWEST NORTH DAKOTA

CITY           SKY/WX    TMP DP  RH WIND       PRES   REMARKS
BISMARCK       MOCLDY    17  12  80 S10       30.15S WCI   5
DICKINSON      CLOUDY    20  15  81 S10       29.99F WCI   9
GARRISON         N/A     17  14  88 SE8       30.10S WCI   7
HETTINGER ARPT CLOUDY    19  16  88 SE9       30.02F FOG     WCI   8
$$

NDZ004>008-012>016-024-026-027-054-180900-
NORTHEAST NORTH DAKOTA

CITY           SKY/WX    TMP DP  RH WIND       PRES   REMARKS
GRAND FORKS    PTCLDY     4   0  83 CALM      30.29F
GRND FRKS AFB  MOCLDY     2   0  93 W1        30.28F
DEVILS LAKE    PTCLDY     7  -2  66 SE7       30.18S WCI  -5
$$

NDZ022-023-025-028>030-036>039-047>053-180900-
SOUTHEAST NORTH DAKOTA

CITY           SKY/WX    TMP DP  RH WIND       PRES   REMARKS
FARGO          FAIR       9   5  84 SE5       30.29S WCI   1
JAMESTOWN      MOCLDY     9   6  88 SE7       30.21F WCI  -2
$$




USA.gov is the U.S. government's official web portal to all federal, state and local government web resources and services.